• In Hungary
  • List of Countries
  • For 7 days
  • Water Temperature
  • Satellite Maps
  • Weather Map
  • News
  • Weather Widgets
  • user-avatar
    Login

    Hourly Weather Staivka

    Today, 22 October, Sunday

    Time Temperature Precipitation Wind Pressure Humidity
    00:00 +8°C° 0 mm 2 mps 743 mmHg 94%
    01:00 +8°C° 0 mm 2 mps 743 mmHg 94%
    02:00 +10°C° 0 mm 1 mps 743 mmHg 95%
    03:00 +9°C° 0 mm 2 mps 743 mmHg 94%
    04:00 +9°C° 0 mm 2 mps 743 mmHg 93%
    05:00 +9°C° 0 mm 2 mps 743 mmHg 91%
    06:00 +9°C° 0 mm 2 mps 743 mmHg 90%
    07:00 +9°C° 0 mm 3 mps 744 mmHg 89%
    08:00 +8°C° 0 mm 3 mps 744 mmHg 87%
    09:00 +9°C° 0 mm 3 mps 744 mmHg 84%
    10:00 +9°C° 0 mm 3 mps 744 mmHg 81%
    11:00 +9°C° 0 mm 3 mps 744 mmHg 78%
    12:00 +10°C° 0 mm 3 mps 744 mmHg 76%
    13:00 +11°C° 0 mm 3 mps 743 mmHg 74%
    14:00 +11°C° 0 mm 3 mps 743 mmHg 72%
    15:00 +11°C° 0 mm 3 mps 743 mmHg 74%
    16:00 +10°C° 0 mm 3 mps 743 mmHg 76%
    17:00 +10°C° 0 mm 3 mps 742 mmHg 78%
    18:00 +9°C° 0 mm 3 mps 742 mmHg 79%
    19:00 +8°C° 0 mm 4 mps 742 mmHg 80%
    20:00 +8°C° 0 mm 4 mps 742 mmHg 81%
    21:00 +7°C° 0 mm 4 mps 742 mmHg 82%
    22:00 +7°C° 0 mm 4 mps 742 mmHg 82%
    23:00 +7°C° 0 mm 4 mps 742 mmHg 82%

    Tomorrow, 23 October, Monday

    Time Temperature Precipitation Wind Pressure Humidity
    00:00 +8°C° 0.1 mm 3 mps 742 mmHg 83%
    01:00 +8°C° 0.1 mm 3 mps 741 mmHg 84%
    02:00 +8°C° 0.1 mm 3 mps 741 mmHg 85%
    03:00 +8°C° 0.2 mm 3 mps 741 mmHg 85%
    04:00 +7°C° 0.2 mm 3 mps 741 mmHg 85%
    05:00 +7°C° 0.2 mm 3 mps 740 mmHg 86%
    06:00 +6°C° 0.2 mm 4 mps 740 mmHg 85%
    07:00 +6°C° 0.2 mm 4 mps 740 mmHg 85%
    08:00 +6°C° 0.2 mm 4 mps 740 mmHg 85%
    09:00 +6°C° 0.4 mm 4 mps 740 mmHg 84%
    10:00 +6°C° 0.4 mm 4 mps 740 mmHg 84%
    11:00 +6°C° 0.4 mm 4 mps 740 mmHg 83%
    12:00 +7°C° 0.3 mm 4 mps 740 mmHg 82%
    13:00 +7°C° 0.3 mm 4 mps 740 mmHg 81%
    14:00 +7°C° 0.3 mm 5 mps 739 mmHg 80%
    15:00 +7°C° 0.3 mm 5 mps 740 mmHg 82%
    16:00 +7°C° 0.3 mm 5 mps 740 mmHg 83%
    17:00 +6°C° 0.3 mm 5 mps 740 mmHg 84%
    18:00 +6°C° 1 mm 5 mps 740 mmHg 85%
    19:00 +6°C° 1 mm 5 mps 740 mmHg 87%
    20:00 +6°C° 1 mm 5 mps 741 mmHg 88%
    21:00 +6°C° 1.2 mm 5 mps 741 mmHg 88%
    22:00 +5°C° 1.2 mm 5 mps 741 mmHg 88%
    23:00 +5°C° 1.2 mm 5 mps 742 mmHg 88%

    Day after tomorrow, 24 October, Tuesday

    Time Temperature Precipitation Wind Pressure Humidity
    00:00 +5°C° 0.3 mm 5 mps 742 mmHg 88%
    01:00 +5°C° 0.3 mm 5 mps 743 mmHg 87%
    02:00 +5°C° 0.3 mm 5 mps 743 mmHg 87%
    03:00 +3°C° 0.2 mm 5 mps 743 mmHg 86%
    04:00 +3°C° 0.2 mm 5 mps 744 mmHg 86%
    05:00 +3°C° 0.2 mm 5 mps 744 mmHg 86%
    06:00 +3°C° 0.1 mm 5 mps 745 mmHg 85%
    07:00 +3°C° 0.1 mm 5 mps 745 mmHg 85%
    08:00 +4°C° 0.1 mm 4 mps 746 mmHg 84%
    09:00 +4°C° 0 mm 4 mps 746 mmHg 82%
    10:00 +4°C° 0 mm 4 mps 747 mmHg 79%
    11:00 +5°C° 0 mm 4 mps 748 mmHg 76%
    12:00 +5°C° 0 mm 4 mps 748 mmHg 74%
    13:00 +6°C° 0 mm 4 mps 748 mmHg 72%
    14:00 +6°C° 0 mm 4 mps 748 mmHg 70%
    15:00 +7°C° 0 mm 3 mps 749 mmHg 72%
    16:00 +5°C° 0 mm 3 mps 749 mmHg 75%
    17:00 +6°C° 0 mm 2 mps 749 mmHg 77%
    18:00 +5°C° 0 mm 2 mps 749 mmHg 79%
    19:00 +5°C° 0 mm 2 mps 750 mmHg 81%
    20:00 +4°C° 0 mm 2 mps 750 mmHg 83%
    21:00 +3°C° 0 mm 2 mps 750 mmHg 83%
    22:00 +3°C° 0 mm 2 mps 751 mmHg 83%
    23:00 +4°C° 0 mm 1 mps 751 mmHg 84%

    25 October, Wednesday

    Time Temperature Precipitation Wind Pressure Humidity
    00:00 +3°C° 0 mm 1 mps 751 mmHg 84%
    01:00 +3°C° 0 mm 1 mps 751 mmHg 83%
    02:00 +3°C° 0 mm 1 mps 751 mmHg 83%
    03:00 +3°C° 0 mm 1 mps 751 mmHg 83%
    04:00 +3°C° 0 mm 1 mps 751 mmHg 83%
    05:00 +1°C° 0 mm 2 mps 751 mmHg 82%
    06:00 +1°C° 0 mm 2 mps 751 mmHg 82%
    07:00 +1°C° 0 mm 2 mps 751 mmHg 81%
    08:00 +1°C° 0 mm 2 mps 751 mmHg 81%
    09:00 +3°C° 0 mm 2 mps 751 mmHg 75%
    10:00 +4°C° 0 mm 2 mps 751 mmHg 68%
    11:00 +5°C° 0 mm 3 mps 751 mmHg 62%
    12:00 +7°C° 0 mm 3 mps 750 mmHg 62%
    13:00 +7°C° 0 mm 3 mps 750 mmHg 61%
    14:00 +8°C° 0 mm 3 mps 749 mmHg 61%
    15:00 +7°C° 0.2 mm 3 mps 749 mmHg 66%
    16:00 +7°C° 0.2 mm 3 mps 748 mmHg 71%
    17:00 +5°C° 0.2 mm 3 mps 748 mmHg 76%
    18:00 +5°C° 0.2 mm 3 mps 748 mmHg 78%
    19:00 +5°C° 0.2 mm 3 mps 748 mmHg 80%
    20:00 +5°C° 0.2 mm 4 mps 748 mmHg 83%
    21:00 +5°C° 0.5 mm 4 mps 747 mmHg 85%
    22:00 +6°C° 0.5 mm 4 mps 747 mmHg 87%
    23:00 +6°C° 0.5 mm 4 mps 747 mmHg 89%

    26 October, Thursday

    Time Temperature Precipitation Wind Pressure Humidity
    00:00 +7°C° 1 mm 4 mps 746 mmHg 91%
    01:00 +7°C° 1 mm 4 mps 746 mmHg 92%
    02:00 +8°C° 1 mm 4 mps 746 mmHg 94%
    03:00 +9°C° 1.1 mm 5 mps 745 mmHg 94%
    04:00 +10°C° 1.1 mm 5 mps 745 mmHg 93%
    05:00 +10°C° 1.1 mm 6 mps 744 mmHg 93%
    06:00 +11°C° 1.2 mm 6 mps 744 mmHg 93%
    07:00 +11°C° 1.2 mm 7 mps 744 mmHg 92%
    08:00 +11°C° 1.2 mm 7 mps 744 mmHg 91%
    09:00 +11°C° 0.4 mm 7 mps 745 mmHg 90%
    10:00 +11°C° 0.4 mm 6 mps 745 mmHg 89%
    11:00 +11°C° 0.4 mm 6 mps 745 mmHg 88%
    12:00 +12°C° 0 mm 5 mps 745 mmHg 84%
    13:00 +12°C° 0 mm 5 mps 746 mmHg 81%
    14:00 +13°C° 0 mm 5 mps 746 mmHg 78%
    15:00 +12°C° 0.1 mm 4 mps 746 mmHg 80%
    16:00 +12°C° 0.1 mm 3 mps 746 mmHg 82%
    17:00 +11°C° 0.1 mm 3 mps 746 mmHg 85%
    18:00 +12°C° 0 mm 2 mps 746 mmHg 87%
    19:00 +10°C° 0 mm 2 mps 746 mmHg 90%
    20:00 +10°C° 0 mm 2 mps 745 mmHg 92%
    21:00 +10°C° 0.3 mm 2 mps 745 mmHg 94%
    22:00 +10°C° 0.3 mm 2 mps 745 mmHg 95%
    23:00 +10°C° 0.3 mm 2 mps 745 mmHg 96%

    27 October, Friday

    Time Temperature Precipitation Wind Pressure Humidity
    00:00 +10°C° 0.3 mm 3 mps 744 mmHg 96%
    01:00 +10°C° 0.3 mm 3 mps 744 mmHg 96%
    02:00 +10°C° 0.3 mm 3 mps 744 mmHg 96%
    03:00 +10°C° 0.3 mm 3 mps 743 mmHg 96%
    04:00 +11°C° 0.3 mm 3 mps 743 mmHg 95%
    05:00 +11°C° 0.3 mm 4 mps 743 mmHg 95%
    06:00 +11°C° 0.1 mm 4 mps 742 mmHg 94%
    07:00 +11°C° 0.1 mm 4 mps 742 mmHg 94%
    08:00 +11°C° 0.1 mm 4 mps 742 mmHg 93%
    09:00 +10°C° 0.1 mm 5 mps 741 mmHg 91%
    10:00 +12°C° 0.1 mm 5 mps 741 mmHg 88%
    11:00 +12°C° 0.1 mm 5 mps 740 mmHg 86%
    12:00 +12°C° 0.5 mm 5 mps 740 mmHg 87%
    13:00 +12°C° 0.5 mm 5 mps 739 mmHg 87%
    14:00 +12°C° 0.5 mm 5 mps 738 mmHg 88%
    15:00 +12°C° 1.1 mm 5 mps 737 mmHg 88%
    16:00 +10°C° 1.1 mm 5 mps 736 mmHg 88%
    17:00 +10°C° 1.1 mm 5 mps 735 mmHg 88%
    18:00 +10°C° 1.3 mm 5 mps 735 mmHg 88%
    19:00 +10°C° 1.3 mm 5 mps 734 mmHg 88%
    20:00 +10°C° 1.3 mm 6 mps 733 mmHg 88%
    21:00 +9°C° 1.3 mm 6 mps 733 mmHg 88%
    22:00 +9°C° 1.3 mm 7 mps 733 mmHg 88%
    23:00 +8°C° 1.3 mm 7 mps 733 mmHg 88%
    Show more